WA6MEM Weather Reports


Display with metric or nautical units.
time (UTC)temp
F
wind
direction
speed
MPH
gust
MPH
rain 1hr
in
rain 24hr
in
rain mn
in
humidity
%
barometer
mb
20211130063050 63 66 0.0 0.0 0.00 0.00 0.00 24 1015.2
20211130062537 63 66 0.0 0.0 0.00 0.00 0.00 23 1015.2
20211130062058 63 66 0.0 0.0 0.00 0.00 0.00 24 1015.2
20211130061616 64 250 0.0 0.0 0.00 0.00 0.00 23 1015.2
20211130061037 64 250 0.0 0.0 0.00 0.00 0.00 23 1015.2
20211130060537 64 250 0.0 0.0 0.00 0.00 0.00 23 1015.2
20211130060117 64 250 0.0 0.0 0.00 0.00 0.00 23 1015.3
20211130055536 64 250 0.0 0.0 0.00 0.00 0.00 23 1015.3
20211130055044 64 250 0.0 0.0 0.00 0.00 0.00 23 1015.3
20211130054551 64 240 0.0 0.0 0.00 0.00 0.00 24 1015.2
20211130054050 64 240 0.0 0.0 0.00 0.00 0.00 23 1015.2
20211130053538 65 240 0.0 0.0 0.00 0.00 0.00 23 1015.2
20211130053055 65 240 0.0 0.0 0.00 0.00 0.00 23 1015.2
20211130052541 65 240 0.0 0.0 0.00 0.00 0.00 22 1015.2
20211130052036 66 247 0.0 0.0 0.00 0.00 0.00 21 1015.2
20211130051537 66 247 0.0 0.0 0.00 0.00 0.00 21 1015.2
20211130051035 66 254 0.0 0.0 0.00 0.00 0.00 20 1015.2
20211130050535 66 254 0.0 0.0 0.00 0.00 0.00 21 1015.2
20211130050145 67 254 0.0 0.0 0.00 0.00 0.00 21 1015.1
20211130045535 67 254 0.0 0.0 0.00 0.00 0.00 22 1015.1
20211130045037 67 254 0.0 0.0 0.00 0.00 0.00 22 1015.1
20211130044554 68 273 0.0 0.0 0.00 0.00 0.00 22 1014.8
20211130044034 68 273 0.0 0.0 0.00 0.00 0.00 21 1014.8
20211130043535 69 273 0.0 0.0 0.00 0.00 0.00 20 1014.8
20211130043045 69 273 0.0 0.0 0.00 0.00 0.00 20 1014.7
20211130042534 69 273 0.0 0.0 0.00 0.00 0.00 20 1014.7
20211130042034 69 273 0.0 0.0 0.00 0.00 0.00 21 1014.7
20211130041607 69 289 0.0 0.0 0.00 0.00 0.00 21 1014.8
20211130041045 69 289 0.0 0.0 0.00 0.00 0.00 20 1014.8
20211130040535 70 289 0.0 0.0 0.00 0.00 0.00 20 1014.8
20211130040053 70 289 0.0 0.0 0.00 0.00 0.00 19 1014.7
20211130035537 70 289 0.0 0.0 0.00 0.00 0.00 19 1014.7
20211130035037 70 289 0.0 0.0 0.00 0.00 0.00 19 1014.7
20211130034545 71 289 0.0 0.0 0.00 0.00 0.00 19 1014.7
20211130034037 71 287 0.0 0.0 0.00 0.00 0.00 18 1014.7
20211130033533 71 278 0.0 0.0 0.00 0.00 0.00 18 1014.7
20211130033054 71 300 0.0 0.0 0.00 0.00 0.00 18 1014.7
20211130032540 71 304 0.0 0.0 0.00 0.00 0.00 19 1014.7
20211130032038 71 311 0.0 0.0 0.00 0.00 0.00 18 1014.7
20211130031604 71 313 0.0 0.0 0.00 0.00 0.00 18 1014.8
20211130031035 71 304 0.0 0.0 0.00 0.00 0.00 18 1014.8
20211130030532 71 299 0.0 0.0 0.00 0.00 0.00 18 1014.8
20211130030036 71 298 1.0 0.0 0.00 0.00 0.00 17 1014.8
20211130025537 71 298 2.0 0.0 0.00 0.00 0.00 17 1014.8
20211130025031 72 292 3.0 0.0 0.00 0.00 0.00 16 1014.8
20211130024535 72 289 4.0 0.0 0.00 0.00 0.00 16 1014.7
20211130024030 72 284 5.0 0.0 0.00 0.00 0.00 16 1014.7
20211130023538 72 285 3.0 0.0 0.00 0.00 0.00 15 1014.7
20211130023105 72 284 2.0 0.0 0.00 0.00 0.00 15 1014.6
20211130022531 72 305 2.0 0.0 0.00 0.00 0.00 15 1014.6
20211130022035 72 309 4.0 0.0 0.00 0.00 0.00 15 1014.6
20211130021548 72 304 5.0 0.0 0.00 0.00 0.00 15 1014.7
20211130021033 72 288 4.0 0.0 0.00 0.00 0.00 15 1014.7
20211130020533 72 302 4.0 0.0 0.00 0.00 0.00 15 1014.7
20211130020100 71 294 4.0 0.0 0.00 0.00 0.00 15 1014.5
20211130015531 71 315 4.0 0.0 0.00 0.00 0.00 16 1014.5
20211130015029 71 311 4.0 0.0 0.00 0.00 0.00 16 1014.5
20211130014618 70 301 4.0 0.0 0.00 0.00 0.00 16 1014.6
20211130014029 70 271 3.0 0.0 0.00 0.00 0.00 15 1014.6
20211130013535 70 261 3.0 0.0 0.00 0.00 0.00 15 1014.6
20211130013121 70 315 3.0 0.0 0.00 0.00 0.00 15 1014.5
20211130012529 70 244 2.0 0.0 0.00 0.00 0.00 15 1014.5
20211130012030 70 279 2.0 0.0 0.00 0.00 0.00 15 1014.5
20211130011545 70 284 1.0 0.0 0.00 0.00 0.00 15 1014.6
20211130011027 69 251 1.0 0.0 0.00 0.00 0.00 16 1014.6
20211130010528 69 263 1.0 0.0 0.00 0.00 0.00 15 1014.6
20211130010033 69 234 0.0 0.0 0.00 0.00 0.00 15 1014.6
20211130005528 69 244 1.0 0.0 0.00 0.00 0.00 15 1014.6
20211130005028 69 250 1.0 0.0 0.00 0.00 0.00 15 1014.6
20211130004534 69 263 0.0 0.0 0.00 0.00 0.00 16 1014.6
20211130004026 70 249 0.0 0.0 0.00 0.00 0.00 16 1014.6
20211130003535 70 244 0.0 0.0 0.00 0.00 0.00 16 1014.6
20211130003030 70 263 0.0 0.0 0.00 0.00 0.00 16 1014.5
20211130002526 70 281 0.0 0.0 0.00 0.00 0.00 16 1014.5
20211130002026 70 248 0.0 0.0 0.00 0.00 0.00 17 1014.5
20211130001618 71 292 0.0 0.0 0.00 0.00 0.00 16 1014.4
20211130001025 71 278 0.0 0.0 0.00 0.00 0.00 15 1014.4
20211130000525 71 293 0.0 0.0 0.00 0.00 0.00 16 1014.4
20211130000102 71 293 0.0 0.0 0.00 0.00 0.00 15 1014.4
20211129235525 71 298 0.0 0.0 0.00 0.00 0.00 15 1014.4
20211129235031 72 297 0.0 0.0 0.00 0.00 0.00 15 1014.4
20211129234540 72 284 0.0 0.0 0.00 0.00 0.00 16 1014.4
20211129234037 72 291 0.0 0.0 0.00 0.00 0.00 16 1014.4
20211129233524 72 290 1.0 0.0 0.00 0.00 0.00 15 1014.4
20211129233033 73 269 0.0 0.0 0.00 0.00 0.00 17 1014.3
20211129232524 73 292 0.0 0.0 0.00 0.00 0.00 17 1014.3
20211129232024 73 273 0.0 0.0 0.00 0.00 0.00 17 1014.3
20211129231551 73 263 0.0 0.0 0.00 0.00 0.00 17 1014.3
20211129231039 73 293 0.0 0.0 0.00 0.00 0.00 16 1014.3
20211129230528 74 280 0.0 0.0 0.00 0.00 0.00 16 1014.3
20211129230027 74 274 1.0 0.0 0.00 0.00 0.00 19 1014.2
20211129225528 74 273 1.0 0.0 0.00 0.00 0.00 17 1014.2
20211129225022 74 277 0.0 0.0 0.00 0.00 0.00 17 1014.2
20211129224525 74 280 0.0 0.0 0.00 0.00 0.00 18 1014.3
20211129224020 74 286 0.0 0.0 0.00 0.00 0.00 17 1014.3
20211129223520 75 276 0.0 0.0 0.00 0.00 0.00 16 1014.3
20211129223042 75 261 0.0 0.0 0.00 0.00 0.00 17 1014.5
20211129222519 76 275 0.0 0.0 0.00 0.00 0.00 19 1014.5
20211129222021 76 227 0.0 0.0 0.00 0.00 0.00 20 1014.5
20211129221521 76 279 0.0 0.0 0.00 0.00 0.00 33 1014.5
20211129221020 76 240 0.0 0.0 0.00 0.00 0.00 35 1014.5
20211129220516 76 218 0.0 0.0 0.00 0.00 0.00 30 1014.5
20211129220044 76 238 0.0 0.0 0.00 0.00 0.00 29 1014.6
20211129215516 76 279 0.0 0.0 0.00 0.00 0.00 21 1014.6
20211129215015 75 35 0.0 0.0 0.00 0.00 0.00 29 1014.6
20211129214517 75 5 0.0 0.0 0.00 0.00 0.00 29 1014.8
20211129214013 75 5 0.0 0.0 0.00 0.00 0.00 30 1014.8
20211129213515 74 5 0.0 0.0 0.00 0.00 0.00 27 1014.8
20211129213026 74 5 0.0 0.0 0.00 0.00 0.00 29 1015.1
20211129212514 74 360 0.0 0.0 0.00 0.00 0.00 30 1015.1
20211129212035 75 355 0.0 0.0 0.00 0.00 0.00 28 1015.1
20211129211522 74 289 0.0 0.0 0.00 0.00 0.00 26 1015.2
20211129211013 74 24 0.0 0.0 0.00 0.00 0.00 31 1015.2
20211129210515 74 34 0.0 0.0 0.00 0.00 0.00 32 1015.2
20211129210011 74 60 0.0 0.0 0.00 0.00 0.00 34 1015.4
20211129205509 74 48 0.0 0.0 0.00 0.00 0.00 34 1015.4
20211129205016 74 35 0.0 0.0 0.00 0.00 0.00 38 1015.4
20211129204535 74 44 1.0 0.0 0.00 0.00 0.00 39 1015.6
20211129204010 75 360 1.0 0.0 0.00 0.00 0.00 38 1015.6
20211129203510 75 9 1.0 0.0 0.00 0.00 0.00 38 1015.6
20211129203007 76 64 1.0 0.0 0.00 0.00 0.00 34 1015.7
20211129202507 75 24 0.0 0.0 0.00 0.00 0.00 32 1015.7
20211129202008 76 5 0.0 0.0 0.00 0.00 0.00 30 1015.7
20211129201506 75 355 0.0 0.0 0.00 0.00 0.00 31 1015.9
20211129201004 75 355 1.0 0.0 0.00 0.00 0.00 29 1015.9
20211129200504 75 345 0.0 0.0 0.00 0.00 0.00 29 1015.9
20211129200005 75 348 0.0 0.0 0.00 0.00 0.00 28 1016.2
20211129195504 75 360 0.0 0.0 0.00 0.00 0.00 28 1016.2
20211129195003 75 351 0.0 0.0 0.00 0.00 0.00 30 1016.2
20211129194504 75 348 0.0 0.0 0.00 0.00 0.00 30 1016.6
20211129194004 75 344 0.0 0.0 0.00 0.00 0.00 30 1016.6
20211129193207 74 329 0.0 0.0 0.00 0.00 0.00 27 1016.8
20211129192603 74 355 0.0 0.0 0.00 0.00 0.00 27 1016.8
20211129192102 74 314 0.0 0.0 0.00 0.00 0.00 29 1016.8
20211129191645 74 289 0.0 0.0 0.00 0.00 0.00 27 1017.0
20211129191108 74 5 1.0 0.0 0.00 0.00 0.00 28 1017.0
20211129190604 74 355 0.0 0.0 0.00 0.00 0.00 27 1017.0
20211129190124 74 30 0.0 0.0 0.00 0.00 0.00 27 1017.3
20211129185556 73 9 0.0 0.0 0.00 0.00 0.00 27 1017.3
20211129185059 73 34 0.0 0.0 0.00 0.00 0.00 27 1017.3
20211129184624 73 20 1.0 0.0 0.00 0.00 0.00 26 1017.4
20211129184054 73 343 1.0 0.0 0.00 0.00 0.00 24 1017.4
20211129183630 73 340 1.0 0.0 0.00 0.00 0.00 23 1017.4
20211129183117 73 21 0.0 0.0 0.00 0.00 0.00 23 1017.7
20211129182556 73 33 0.0 0.0 0.00 0.00 0.00 23 1017.7
20211129182054 73 34 0.0 0.0 0.00 0.00 0.00 23 1017.7
20211129181746 73 355 0.0 0.0 0.00 0.00 0.00 22 1017.7
20211129181052 73 355 0.0 0.0 0.00 0.00 0.00 21 1017.7
20211129180551 73 350 0.0 0.0 0.00 0.00 0.00 21 1017.7
20211129180122 73 19 0.0 0.0 0.00 0.00 0.00 20 1017.8
20211129175550 72 25 0.0 0.0 0.00 0.00 0.00 19 1017.8
20211129175048 72 24 0.0 0.0 0.00 0.00 0.00 20 1017.8
20211129174637 71 26 1.0 0.0 0.00 0.00 0.00 19 1017.8
20211129174046 71 351 1.0 0.0 0.00 0.00 0.00 19 1017.8
20211129173547 71 19 0.0 0.0 0.00 0.00 0.00 20 1017.8
20211129173121 70 15 0.0 0.0 0.00 0.00 0.00 21 1017.9
20211129172545 70 346 0.0 0.0 0.00 0.00 0.00 20 1017.9
20211129172044 70 17 1.0 0.0 0.00 0.00 0.00 21 1017.9
20211129171610 70 17 1.0 0.0 0.00 0.00 0.00 20 1017.9
20211129171043 70 5 1.0 0.0 0.00 0.00 0.00 21 1017.9
20211129170551 70 26 0.0 0.0 0.00 0.00 0.00 21 1017.9
20211129170057 70 32 0.0 0.0 0.00 0.00 0.00 22 1017.8
20211129165542 70 31 0.0 0.0 0.00 0.00 0.00 23 1017.8
20211129165042 70 31 0.0 0.0 0.00 0.00 0.00 24 1017.8
20211129164613 70 30 0.0 0.0 0.00 0.00 0.00 21 1017.9
20211129164052 69 30 0.0 0.0 0.00 0.00 0.00 22 1017.9
20211129163546 69 34 0.0 0.0 0.00 0.00 0.00 23 1017.9
20211129163128 68 33 0.0 0.0 0.00 0.00 0.00 23 1017.9
20211129162534 67 44 0.0 0.0 0.00 0.00 0.00 23 1017.9
20211129162033 67 43 0.0 0.0 0.00 0.00 0.00 24 1017.9
20211129161614 67 43 0.0 0.0 0.00 0.00 0.00 25 1017.8
20211129161106 67 43 0.0 0.0 0.00 0.00 0.00 25 1017.8
20211129160531 67 43 0.0 0.0 0.00 0.00 0.00 25 1017.8
20211129160105 66 43 0.0 0.0 0.00 0.00 0.00 23 1017.7
20211129155529 66 43 0.0 0.0 0.00 0.00 0.00 23 1017.7
20211129155036 66 43 0.0 0.0 0.00 0.00 0.00 23 1017.7
20211129154542 65 43 0.0 0.0 0.00 0.00 0.00 22 1017.6
20211129154026 64 43 0.0 0.0 0.00 0.00 0.00 23 1017.6
20211129153550 64 43 0.0 0.0 0.00 0.00 0.00 26 1017.6
20211129153103 64 43 0.0 0.0 0.00 0.00 0.00 24 1017.6
20211129152535 64 43 0.0 0.0 0.00 0.00 0.00 25 1017.6
20211129152031 64 43 0.0 0.0 0.00 0.00 0.00 25 1017.6
20211129151601 63 43 0.0 0.0 0.00 0.00 0.00 25 1017.7
20211129151024 63 43 0.0 0.0 0.00 0.00 0.00 24 1017.7
20211129150524 63 40 0.0 0.0 0.00 0.00 0.00 25 1017.7
20211129150037 63 40 0.0 0.0 0.00 0.00 0.00 25 1017.5
20211129145532 63 40 0.0 0.0 0.00 0.00 0.00 26 1017.5
20211129145024 64 40 0.0 0.0 0.00 0.00 0.00 25 1017.5
20211129144534 64 40 0.0 0.0 0.00 0.00 0.00 25 1017.4
20211129144030 63 40 0.0 0.0 0.00 0.00 0.00 25 1017.4
20211129143532 63 40 0.0 0.0 0.00 0.00 0.00 25 1017.4
20211129143046 63 40 1.0 0.0 0.00 0.00 0.00 26 1017.2
20211129142528 63 40 1.0 0.0 0.00 0.00 0.00 26 1017.2
20211129142035 63 40 1.0 0.0 0.00 0.00 0.00 26 1017.2
20211129141530 62 39 0.0 0.0 0.00 0.00 0.00 26 1017.2
20211129141045 62 39 0.0 0.0 0.00 0.00 0.00 28 1017.2
20211129140522 63 39 1.0 0.0 0.00 0.00 0.00 29 1017.2
20211129140025 62 39 1.0 0.0 0.00 0.00 0.00 28 1017.1
20211129135521 62 38 0.0 0.0 0.00 0.00 0.00 30 1017.1
20211129135030 61 38 0.0 0.0 0.00 0.00 0.00 30 1017.1
20211129134524 61 38 0.0 0.0 0.00 0.00 0.00 31 1017.1
20211129134027 60 34 0.0 0.0 0.00 0.00 0.00 32 1017.1
20211129133531 60 13 0.0 0.0 0.00 0.00 0.00 35 1017.1
20211129133116 60 10 0.0 0.0 0.00 0.00 0.00 37 1016.9
20211129132519 60 10 0.0 0.0 0.00 0.00 0.00 37 1016.9
20211129132027 60 10 0.0 0.0 0.00 0.00 0.00 37 1016.9
20211129131519 60 10 0.0 0.0 0.00 0.00 0.00 37 1016.8
20211129131018 60 9 0.0 0.0 0.00 0.00 0.00 37 1016.8
20211129130518 60 11 0.0 0.0 0.00 0.00 0.00 37 1016.8
20211129130050 60 9 0.0 0.0 0.00 0.00 0.00 36 1016.8
20211129125522 61 9 0.0 0.0 0.00 0.00 0.00 36 1016.8
20211129125017 60 5 0.0 0.0 0.00 0.00 0.00 35 1016.8
20211129124544 60 5 0.0 0.0 0.00 0.00 0.00 34 1016.8
20211129124017 60 360 0.0 0.0 0.00 0.00 0.00 34 1016.8
20211129123540 60 355 0.0 0.0 0.00 0.00 0.00 33 1016.8
20211129123028 60 5 0.0 0.0 0.00 0.00 0.00 32 1016.7
20211129122515 60 355 0.0 0.0 0.00 0.00 0.00 31 1016.7
20211129122021 60 355 0.0 0.0 0.00 0.00 0.00 31 1016.7
20211129121521 60 355 0.0 0.0 0.00 0.00 0.00 31 1016.4
20211129121013 61 355 0.0 0.0 0.00 0.00 0.00 30 1016.4
20211129120512 61 23 0.0 0.0 0.00 0.00 0.00 30 1016.4
20211129120020 61 9 0.0 0.0 0.00 0.00 0.00 30 1016.5
20211129115519 61 5 0.0 0.0 0.00 0.00 0.00 30 1016.5
20211129115012 61 9 0.0 0.0 0.00 0.00 0.00 29 1016.5
20211129114537 61 9 0.0 0.0 0.00 0.00 0.00 29 1016.4
20211129114036 61 9 0.0 0.0 0.00 0.00 0.00 29 1016.4
20211129113536 61 11 0.0 0.0 0.00 0.00 0.00 29 1016.4
20211129113015 61 9 0.0 0.0 0.00 0.00 0.00 29 1016.5
20211129112516 61 10 0.0 0.0 0.00 0.00 0.00 29 1016.5
20211129112010 62 9 0.0 0.0 0.00 0.00 0.00 28 1016.5
20211129111514 62 9 0.0 0.0 0.00 0.00 0.00 28 1016.3
20211129111016 62 10 0.0 0.0 0.00 0.00 0.00 27 1016.3
20211129110512 63 10 0.0 0.0 0.00 0.00 0.00 27 1016.3
20211129110026 63 10 0.0 0.0 0.00 0.00 0.00 27 1016.4
20211129105532 63 10 0.0 0.0 0.00 0.00 0.00 26 1016.4
20211129105018 63 15 0.0 0.0 0.00 0.00 0.00 27 1016.4
20211129104509 63 10 0.0 0.0 0.00 0.00 0.00 26 1016.6
20211129104008 63 19 0.0 0.0 0.00 0.00 0.00 27 1016.6
20211129103516 63 13 0.0 0.0 0.00 0.00 0.00 27 1016.6
20211129103007 63 13 0.0 0.0 0.00 0.00 0.00 26 1016.7
20211129102511 63 12 0.0 0.0 0.00 0.00 0.00 26 1016.7
20211129102024 63 5 0.0 0.0 0.00 0.00 0.00 26 1016.7
20211129101510 63 5 1.0 0.0 0.00 0.00 0.00 25 1016.7
20211129101013 63 5 0.0 0.0 0.00 0.00 0.00 25 1016.7
20211129100510 64 11 0.0 0.0 0.00 0.00 0.00 24 1016.7
20211129100034 64 11 0.0 0.0 0.00 0.00 0.00 24 1016.9
20211129095510 64 11 0.0 0.0 0.00 0.00 0.00 23 1016.9
20211129095004 63 18 0.0 0.0 0.00 0.00 0.00 23 1016.9
20211129094512 63 14 0.0 0.0 0.00 0.00 0.00 24 1017.1
20211129094003 62 14 0.0 0.0 0.00 0.00 0.00 25 1017.1
20211129093506 62 17 0.0 0.0 0.00 0.00 0.00 25 1017.1
20211129093003 62 17 0.0 0.0 0.00 0.00 0.00 23 1017.3
20211129092507 61 17 0.0 0.0 0.00 0.00 0.00 25 1017.3
20211129092007 61 15 0.0 0.0 0.00 0.00 0.00 26 1017.3
20211129091502 61 5 0.0 0.0 0.00 0.00 0.00 27 1017.4
20211129090608 62 5 0.0 0.0 0.00 0.00 0.00 26 1017.4
20211129090112 62 5 0.0 0.0 0.00 0.00 0.00 26 1017.5
20211129085604 62 5 0.0 0.0 0.00 0.00 0.00 26 1017.5
20211129085059 62 5 0.0 0.0 0.00 0.00 0.00 27 1017.5
20211129084617 62 5 0.0 0.0 0.00 0.00 0.00 26 1017.6
20211129084106 62 330 0.0 0.0 0.00 0.00 0.00 25 1017.6
20211129083557 62 329 0.0 0.0 0.00 0.00 0.00 25 1017.6
20211129083223 62 328 0.0 0.0 0.00 0.00 0.00 23 1017.8
20211129082555 63 328 0.0 0.0 0.00 0.00 0.00 23 1017.8
20211129082101 63 328 0.0 0.0 0.00 0.00 0.00 22 1017.8
20211129081655 63 328 0.0 0.0 0.00 0.00 0.00 21 1017.9
20211129081054 63 328 0.0 0.0 0.00 0.00 0.00 21 1017.9
20211129080553 63 328 0.0 0.0 0.00 0.00 0.00 22 1017.9
20211129080109 63 328 0.0 0.0 0.00 0.00 0.00 22 1018.0
20211129075552 63 328 0.0 0.0 0.00 0.00 0.00 22 1018.0
20211129075059 63 328 0.0 0.0 0.00 0.00 0.00 22 1018.0
20211129074623 63 328 0.0 0.0 0.00 0.00 0.00 23 1018.1
20211129074052 63 328 0.0 0.0 0.00 0.00 0.00 23 1018.1
20211129073551 63 328 0.0 0.0 0.00 0.00 0.00 23 1018.1
20211129073139 62 328 0.0 0.0 0.00 0.00 0.00 24 1018.1
20211129072552 62 328 0.0 0.0 0.00 0.00 0.00 23 1018.1
20211129072104 63 328 0.0 0.0 0.00 0.00 0.00 22 1018.1
20211129071712 63 328 0.0 0.0 0.00 0.00 0.00 22 1018.3
20211129071057 63 328 0.0 0.0 0.00 0.00 0.00 21 1018.3
20211129070610 63 328 0.0 0.0 0.00 0.00 0.00 20 1018.3
20211129070224 63 328 0.0 0.0 0.00 0.00 0.00 19 1018.1
20211129065550 64 328 0.0 0.0 0.00 0.00 0.00 18 1018.1
20211129065054 65 328 0.0 0.0 0.00 0.00 0.00 17 1018.1
20211129064622 65 328 0.0 0.0 0.00 0.00 0.00 16 1018.1
20211129064125 66 280 0.0 0.0 0.00 0.00 0.00 15 1018.1
20211129063552 67 280 0.0 0.0 0.00 0.00 0.00 14 1018.1